TimeEST,TemperatureF,Dew PointF,Humidity,Sea Level PressureIn,VisibilityMPH,Wind Direction,Wind SpeedMPH,Gust SpeedMPH,PrecipitationIn,Events,Conditions,WindDirDegrees,DateUTC
12:15 AM,24.8,23.0,93,29.90,6.0,Calm,Calm,-,N/A,,Clear,0,2013-02-24 05:15:00
12:35 AM,26.6,24.8,93,29.90,8.0,NNW,3.5,-,N/A,,Clear,340,2013-02-24 05:35:00
12:55 AM,26.6,24.8,93,29.90,9.0,Calm,Calm,-,N/A,,Clear,0,2013-02-24 05:55:00
1:15 AM,26.6,24.8,93,29.91,9.0,NW,3.5,-,N/A,,Clear,310,2013-02-24 06:15:00
1:35 AM,26.6,26.6,100,29.92,10.0,Calm,Calm,-,N/A,,Clear,0,2013-02-24 06:35:00
1:55 AM,26.6,24.8,93,29.92,8.0,Calm,Calm,-,N/A,,Clear,0,2013-02-24 06:55:00
2:15 AM,24.8,21.2,86,29.92,7.0,Calm,Calm,-,N/A,,Clear,0,2013-02-24 07:15:00
2:35 AM,24.8,21.2,86,29.92,5.0,Calm,Calm,-,N/A,,Clear,0,2013-02-24 07:35:00
2:55 AM,24.8,24.8,100,29.91,5.0,Calm,Calm,-,N/A,,Partly Cloudy,0,2013-02-24 07:55:00
3:15 AM,23.0,21.2,93,29.91,5.0,Calm,Calm,-,N/A,,Scattered Clouds,0,2013-02-24 08:15:00
3:35 AM,24.8,23.0,93,29.91,5.0,Calm,Calm,-,N/A,,Partly Cloudy,0,2013-02-24 08:35:00
3:55 AM,23.0,19.4,86,29.91,4.0,Calm,Calm,-,N/A,,Partly Cloudy,0,2013-02-24 08:55:00
4:15 AM,24.8,21.2,86,29.92,5.0,Calm,Calm,-,N/A,,Scattered Clouds,0,2013-02-24 09:15:00
4:35 AM,21.2,19.4,93,29.92,5.0,Calm,Calm,-,N/A,,Scattered Clouds,0,2013-02-24 09:35:00
4:55 AM,23.0,21.2,93,29.93,5.0,Calm,Calm,-,N/A,,Mostly Cloudy,0,2013-02-24 09:55:00
5:15 AM,24.8,23.0,93,29.94,5.0,Calm,Calm,-,N/A,,Overcast,0,2013-02-24 10:15:00
5:35 AM,24.8,23.0,93,29.94,5.0,Calm,Calm,-,N/A,,Overcast,0,2013-02-24 10:35:00
5:55 AM,26.6,24.8,93,29.94,6.0,WSW,3.5,-,N/A,,Overcast,250,2013-02-24 10:55:00
6:15 AM,26.6,24.8,93,29.94,6.0,Calm,Calm,-,N/A,,Overcast,0,2013-02-24 11:15:00
6:35 AM,26.6,24.8,93,29.94,7.0,SW,3.5,-,N/A,,Overcast,230,2013-02-24 11:35:00
6:55 AM,26.6,24.8,93,29.96,7.0,West,3.5,-,N/A,,Overcast,260,2013-02-24 11:55:00
7:15 AM,26.6,24.8,93,29.97,6.0,WSW,4.6,-,N/A,,Overcast,240,2013-02-24 12:15:00
7:35 AM,28.4,24.8,86,29.97,6.0,WSW,4.6,-,N/A,,Overcast,240,2013-02-24 12:35:00
7:55 AM,28.4,24.8,86,29.97,6.0,WSW,3.5,-,N/A,,Overcast,250,2013-02-24 12:55:00
8:15 AM,28.4,24.8,86,29.98,6.0,WSW,4.6,-,N/A,,Overcast,250,2013-02-24 13:15:00
8:35 AM,28.4,24.8,86,29.98,7.0,WSW,6.9,-,N/A,,Overcast,240,2013-02-24 13:35:00
8:55 AM,28.4,24.8,86,29.99,7.0,WSW,6.9,-,N/A,,Overcast,250,2013-02-24 13:55:00
9:15 AM,28.4,24.8,86,30.00,8.0,West,11.5,-,N/A,,Overcast,260,2013-02-24 14:15:00
9:35 AM,28.4,23.0,80,30.00,10.0,WSW,9.2,-,N/A,,Overcast,250,2013-02-24 14:35:00
9:55 AM,28.4,23.0,80,30.00,9.0,WSW,8.1,16.1,N/A,,Overcast,250,2013-02-24 14:55:00
10:15 AM,28.4,23.0,80,30.00,10.0,West,12.7,-,N/A,,Overcast,260,2013-02-24 15:15:00
10:35 AM,28.4,21.2,74,30.01,10.0,WSW,9.2,-,N/A,,Overcast,250,2013-02-24 15:35:00
10:55 AM,28.4,21.2,74,30.01,9.0,West,9.2,-,N/A,,Overcast,260,2013-02-24 15:55:00
11:15 AM,28.4,21.2,74,30.02,10.0,WSW,6.9,-,N/A,,Overcast,250,2013-02-24 16:15:00
11:35 AM,28.4,21.2,74,30.02,10.0,West,9.2,-,N/A,,Overcast,270,2013-02-24 16:35:00
11:55 AM,28.4,21.2,74,30.03,10.0,West,9.2,-,N/A,,Overcast,270,2013-02-24 16:55:00
12:15 PM,28.4,21.2,74,30.03,10.0,West,9.2,-,N/A,,Overcast,260,2013-02-24 17:15:00
12:35 PM,28.4,21.2,74,30.03,10.0,West,9.2,18.4,N/A,,Overcast,260,2013-02-24 17:35:00
12:55 PM,28.4,19.4,69,30.03,10.0,West,12.7,-,N/A,,Overcast,270,2013-02-24 17:55:00
1:15 PM,28.4,21.2,74,30.04,10.0,West,12.7,18.4,N/A,,Overcast,270,2013-02-24 18:15:00
1:35 PM,28.4,19.4,69,30.04,10.0,West,8.1,-,N/A,,Overcast,280,2013-02-24 18:35:00
1:55 PM,28.4,19.4,69,30.04,10.0,West,10.4,-,N/A,,Overcast,280,2013-02-24 18:55:00
2:15 PM,28.4,19.4,69,30.05,10.0,West,9.2,-,N/A,,Overcast,260,2013-02-24 19:15:00
2:35 PM,28.4,19.4,69,30.05,10.0,West,10.4,18.4,N/A,,Overcast,260,2013-02-24 19:35:00
2:55 PM,28.4,19.4,69,30.06,10.0,West,11.5,18.4,N/A,,Overcast,270,2013-02-24 19:55:00
3:15 PM,28.4,21.2,74,30.07,5.0,WNW,6.9,-,N/A,,Overcast,290,2013-02-24 20:15:00
3:35 PM,28.4,19.4,69,30.08,10.0,West,10.4,18.4,N/A,,Overcast,260,2013-02-24 20:35:00
3:55 PM,28.4,21.2,74,30.08,10.0,WSW,8.1,-,N/A,,Overcast,250,2013-02-24 20:55:00
4:15 PM,28.4,19.4,69,30.08,10.0,West,11.5,-,N/A,,Overcast,270,2013-02-24 21:15:00
4:35 PM,28.4,19.4,69,30.08,10.0,West,8.1,-,N/A,,Overcast,280,2013-02-24 21:35:00
4:55 PM,30.2,19.4,64,30.09,10.0,WSW,5.8,-,N/A,,Overcast,250,2013-02-24 21:55:00
5:15 PM,28.4,19.4,69,30.10,10.0,West,9.2,-,N/A,,Overcast,270,2013-02-24 22:15:00
5:35 PM,28.4,19.4,69,30.11,10.0,West,8.1,-,N/A,,Overcast,260,2013-02-24 22:35:00
5:55 PM,28.4,19.4,69,30.12,10.0,WSW,5.8,-,N/A,,Overcast,250,2013-02-24 22:55:00
6:15 PM,28.4,19.4,69,30.12,10.0,WSW,5.8,-,N/A,,Overcast,250,2013-02-24 23:15:00
6:35 PM,28.4,19.4,69,30.12,10.0,WSW,4.6,-,N/A,,Overcast,250,2013-02-24 23:35:00
6:55 PM,28.4,19.4,69,30.13,10.0,WSW,5.8,-,N/A,,Overcast,240,2013-02-24 23:55:00
7:15 PM,28.4,19.4,69,30.14,10.0,SW,5.8,-,N/A,,Overcast,230,2013-02-25 00:15:00
7:35 PM,28.4,19.4,69,30.15,10.0,SW,4.6,-,N/A,,Overcast,230,2013-02-25 00:35:00
7:55 PM,28.4,19.4,69,30.15,10.0,WSW,5.8,-,N/A,,Overcast,240,2013-02-25 00:55:00
8:15 PM,28.4,19.4,69,30.15,10.0,WSW,5.8,-,N/A,,Overcast,240,2013-02-25 01:15:00
8:35 PM,28.4,19.4,69,30.15,10.0,WSW,5.8,-,N/A,,Overcast,250,2013-02-25 01:35:00
9:15 PM,28.4,19.4,69,30.15,10.0,WSW,5.8,-,N/A,,Overcast,240,2013-02-25 02:15:00
9:35 PM,28.4,19.4,69,30.15,10.0,WSW,5.8,-,N/A,,Overcast,250,2013-02-25 02:35:00
9:55 PM,28.4,19.4,69,30.16,10.0,WSW,4.6,-,N/A,,Overcast,240,2013-02-25 02:55:00
10:15 PM,28.4,19.4,69,30.16,10.0,WSW,5.8,-,N/A,,Overcast,250,2013-02-25 03:15:00
10:35 PM,28.4,19.4,69,30.15,10.0,WSW,5.8,-,N/A,,Overcast,240,2013-02-25 03:35:00
10:55 PM,26.6,19.4,74,30.15,10.0,WSW,4.6,-,N/A,,Overcast,250,2013-02-25 03:55:00
11:15 PM,26.6,17.6,69,30.15,10.0,Calm,Calm,-,N/A,,Mostly Cloudy,0,2013-02-25 04:15:00
11:35 PM,26.6,19.4,74,30.15,10.0,Calm,Calm,-,N/A,,Overcast,0,2013-02-25 04:35:00
11:55 PM,26.6,19.4,74,30.15,10.0,Calm,Calm,-,N/A,,Overcast,0,2013-02-25 04:55:00